Flag for Cook Islands Weather past 2 weeks in Rarotonga, Cook Islands

Now
N/A

Passing clouds.


Feels Like: N/A
Forecast: 64 / 71 °F
Wind: 3 mph from East

Location: Rarotonga

Current Time: Jul 30, 2015 at 12:19:31 AM

Latest Report: Jul 30, 2015 at 12:00 AM


Visibility: N/A

Pressure: N/A

Humidity: N/A

Dew point: N/A

Location of RarotongaLocation

Historic Weather in Rarotonga — Graph

°F

Rarotonga temperature yesterday

Maximum temperature yesterday: 73 °F (at 12:00 PM)
Minimum temperature yesterday: 57 °F (at 6:00 AM)
Average temperature yesterday: 66 °F

Past Weeks' High & Low Weather Summary

 TemperatureHumidityPressure
High81 °F (Jul 19, 1:00 PM)94% (Jul 18, 9:00 PM)30.15 "Hg (Jul 18, 9:00 PM)
Low57 °F (Jul 29, 6:00 AM)44% (Jul 16, 11:00 AM)29.86 "Hg (Jul 16, 8:00 PM)
Average69 °F69%30.03 "Hg
* Reported Jul 14 11:00 PM — Jul 29 11:00 PM, Rarotonga, Weather by CustomWeather, © 2015

Note: Actual official high and low records may vary slightly from our data, if they occured in-between our weather recording intervals... More about our weather records

Advertising

Rarotonga weather history for previous 24 hours

 ConditionsComfort  
Time TempWeatherWind HumidityBarometerVisibility
11:00 PM
Wed, Jul 29
63 °FPassing clouds.3 mph77%29.95 "HgN/A
9:00 PM70 °FPassing clouds.5 mph60%29.95 "HgN/A
8:00 PM70 °FPassing clouds.6 mph60%29.95 "HgN/A
7:00 PM70 °FPartly cloudy.6 mph60%29.92 "HgN/A
6:00 PM70 °FBroken clouds.3 mph69%29.95 "HgN/A
5:00 PM72 °FBroken clouds.5 mph61%29.92 "HgN/A
4:00 PM73 °FBroken clouds.2 mph57%29.92 "HgN/A
3:00 PM73 °FBroken clouds.6 mph61%29.95 "HgN/A
2:00 PM73 °FPartly sunny.6 mph61%29.95 "HgN/A
1:00 PM73 °FPartly sunny.3 mph53%29.98 "HgN/A
12:00 PM73 °FPartly sunny.3 mph57%29.98 "HgN/A
11:00 AM72 °FPartly sunny.7 mph57%30.01 "HgN/A
10:00 AM72 °FPartly sunny.5 mph53%30.01 "HgN/A
9:00 AM68 °FPartly sunny.3 mph69%30.01 "HgN/A
8:00 AM61 °FPartly sunny.3 mph88%29.98 "HgN/A
7:00 AM59 °FPassing clouds.3 mph82%29.95 "HgN/A
6:00 AM57 °FPassing clouds.2 mph88%29.92 "HgN/A
5:00 AM59 °FPassing clouds.2 mph82%29.95 "HgN/A
4:00 AM59 °FPassing clouds.1 mph82%29.95 "HgN/A
3:00 AM59 °FPassing clouds.2 mph82%29.95 "HgN/A
2:00 AM59 °FPassing clouds.2 mph82%29.98 "HgN/A
1:00 AM61 °FPassing clouds.1 mph77%29.98 "HgN/A
12:00 AM61 °FPassing clouds.1 mph77%30.01 "HgN/A
Weather by CustomWeather, © 2015

See weather overviewHow to use our weather pages